Location: Fensholt
(55.9856°N, 10.0808°E)
Time: 18:42:32
(UTC+00:00)

USA 81 - Pass Details

Date: 07 June 2020
Orbit: 786 x 787 km, 85.0° (Epoch: 09 July)

Event Time Altitude Azimuth Distance (km) Brightness Sun altitude
Exits shadow 00:30:18 13° 197° (SSW) 2,161 5.6 -9.8°
Maximum altitude 00:35:04 69° 280° (W) 847 4.2 -9.6°
Drops below altitude 10° 00:40:22 10° 4° (N) 2,362 8.0 -9.3°
Sets 00:42:45 0° 7° (N) 3,295 9.2 -9.2°
